{"data":{"norad_id":67348,"intl_designator":"2026-003Q","name":"STARLINK-36467","alt_names":[],"object_type":"PAYLOAD","status":"ACTIVE","operator":null,"country":"US","launch_date":"2026-01-09","launch_site_code":"AFETR","launch_vehicle":null,"mission":null,"orbit_class":"UNKNOWN","rcs_meters":null,"size_class":null,"mass_kg":null,"dimensions":null,"purposes":["comms"],"wikipedia_slug":null,"has_3d_model":false,"image_url":null,"decayed_at":null,"tle_current":{"epoch":"2026-05-25T01:43:32.294784Z","epoch_age_seconds":82985,"freshness":"FRESH","line1":"1 67348U 26003Q   26145.07190156  .00018995  00000+0  69825-3 0  9990","line2":"2 67348  43.0019 155.8681 0001101 275.3480  84.7246 15.27569105 20502","mean_motion":15.27569105,"eccentricity":0.0001101,"inclination_deg":43.0019,"raan_deg":155.8681,"arg_perigee_deg":275.348,"mean_anomaly_deg":84.7246,"bstar":0.00069825,"rev_number":2050,"period_min":94.267421047377,"perigee_km":482.32629960196,"apogee_km":483.83713996406,"semimajor_km":6861.218719783,"source":"CELESTRAK","updated_at":"2026-05-25T13:38:21.525023Z"}}}